This is the latest recevied weather packets stored in our database for station/object N0FDH. If no packets are shown the sender has not sent any weather packets the latest 1 day(s).
| Time | Temp. | Humidity | Pressure | Rain* | Wind** | Luminosity | Snow |
|---|---|---|---|---|---|---|---|
| 1778005921 | 6.67° C | 50% | 1009.7 hPa | 0 mm | 3.13 m/s, 327° | 263 W/m² | - |
| 1778005616 | 6.11° C | 48% | 1009.6 hPa | 0 mm | 1.34 m/s, 335° | 230 W/m² | - |
| 1778005314 | 6.67° C | 53% | 1009.6 hPa | 0 mm | 2.24 m/s, 339° | 618 W/m² | - |
| 1778005009 | 6.11° C | 52% | 1009.6 hPa | 0 mm | 1.34 m/s, 261° | 252 W/m² | - |
| 1778004707 | 6.11° C | 50% | 1009.6 hPa | 0 mm | 1.79 m/s, 324° | 234 W/m² | - |
| 1778004403 | 6.11° C | 52% | 1009.7 hPa | 0 mm | 2.68 m/s, 318° | 312 W/m² | - |
| 1778004101 | 6.11° C | 51% | 1009.8 hPa | 0 mm | 2.24 m/s, 324° | 208 W/m² | - |
| 1778003797 | 6.11° C | 52% | 1009.8 hPa | 0 mm | 2.68 m/s, 328° | 241 W/m² | - |
| 1778003493 | 5.56° C | 55% | 1009.8 hPa | 0 mm | 2.24 m/s, 348° | 523 W/m² | - |
| 1778003190 | 5.56° C | 54% | 1009.9 hPa | 0 mm | 3.13 m/s, 270° | 287 W/m² | - |
| 1778002886 | 5.56° C | 56% | 1009.7 hPa | 0 mm | 2.24 m/s, 301° | 153 W/m² | - |
| 1778002583 | 5.56° C | 55% | 1009.7 hPa | 0 mm | 2.24 m/s, 272° | 225 W/m² | - |
| 1778002279 | 5.56° C | 54% | 1009.9 hPa | 0 mm | 3.13 m/s, 282° | 246 W/m² | - |
| 1778001977 | 5° C | 54% | 1009.8 hPa | 0 mm | 2.24 m/s, 203° | 279 W/m² | - |
| 1778001675 | 5° C | 55% | 1009.8 hPa | 0 mm | 3.58 m/s, 335° | 215 W/m² | - |
| 1778001374 | 5° C | 56% | 1009.9 hPa | 0 mm | 1.79 m/s, 313° | 254 W/m² | - |
| 1778001072 | 5° C | 57% | 1010 hPa | 0 mm | 1.79 m/s, 299° | 143 W/m² | - |
| 1778000769 | 5° C | 57% | 1010 hPa | 0 mm | 3.13 m/s, 300° | 133 W/m² | - |
| 1778000465 | 5.56° C | 56% | 1009.8 hPa | 0 mm | 2.24 m/s, 316° | 172 W/m² | - |
| 1778000160 | 5° C | 54% | 1009.9 hPa | 0 mm | 2.68 m/s, 308° | 202 W/m² | - |
| 1777999856 | 5° C | 56% | 1009.9 hPa | 0 mm | 2.24 m/s, 345° | 158 W/m² | - |
| 1777999552 | 5° C | 55% | 1009.7 hPa | 0 mm | 4.47 m/s, 323° | 270 W/m² | - |
| 1777999250 | 5° C | 58% | 1009.7 hPa | 0 mm | 1.79 m/s, 309° | 173 W/m² | - |
| 1777998949 | 5° C | 55% | 1009.8 hPa | 0 mm | 1.34 m/s, 332° | 207 W/m² | - |
| 1777998645 | 5.56° C | 52% | 1009.6 hPa | 0 mm | 4.47 m/s, 324° | 346 W/m² | - |
* Rain latest hour (hover to see other rain measurements)
** Current wind speed in m/s (hover to see current wind gust speed)